Location: Asheville, NC
(35.6000°N, 82.5500°W)
Time: 19:39:44
(UTC-05:00)

OTV 5 (USA 277) - Visible Passes

Search period start: 21 February 2018 00:00
Search period end: 03 March 2018 00:00
Orbit: 404 x 417 km, 43.0° (Epoch: 07 September)

Date Brightness Start Highest point End Pass type
(mag) Time Alt. Az. Time Alt. Az. Time Alt. Az.
21 Feb ? 06:07:29 24° WSW 06:09:19 75° NNW 06:12:37 10° ENE visible
22 Feb ? 05:19:05 45° E 05:19:05 45° E 05:21:33 10° ENE visible
23 Feb ? 06:03:20 25° WNW 06:04:36 36° NNW 06:07:41 10° NE visible
24 Feb ? 05:14:44 30° NE 05:14:44 30° NE 05:16:41 10° NE visible
25 Feb ? 05:58:49 20° NW 06:00:01 24° N 06:02:47 10° NE visible
26 Feb ? 05:10:07 21° NNE 05:10:07 21° NNE 05:11:44 10° NE visible
27 Feb ? 05:54:08 17° NW 05:55:31 21° N 05:58:08 10° NE visible
28 Feb ? 05:05:23 19° NNE 05:05:23 19° NNE 05:06:57 10° NE visible
01 Mar ? 05:49:24 17° NNW 05:51:01 24° N 05:53:46 10° ENE visible
02 Mar ? 05:00:41 20° NNE 05:00:41 20° NNE 05:02:27 10° ENE visible
